Regional Weather Roundup
Issued by NWS

Home | Current Version | Previous Version | Text Only | Print | Product List | Glossary On
Versions: 1 2 3 4 5 6 7 8 9 10 11 12 13 14 15 16 17 18 19 20 21 22 23 24 25 26 27 28 29 30 31 32 33 34 35 36 37 38 39 40 41 42 43 44 45 46 47 48 49 50
000
ASCA42 TJSJ 060410
RWRPR
PUERTO RICO/U.S. VIRGIN ISLANDS HOURLY WEATHER ROUNDUP
NATIONAL WEATHER SERVICE SAN JUAN PR
1200 AM AST TUE DEC 06 2016

PRZ001>002-007>008-010-060500-
PUERTO RICO

CITY           SKY/WX    TMP DP  RH WIND       PRES   REMARKS
SAN JUAN LMM   MOCLDY    79  73  83 CALM      30.00F
PONCE          PTCLDY    75  73  94 CALM      30.02R
CEIBA          CLOUDY    79  73  83 E7        30.02F
$$

VIZ001>002-060500-
U.S. VIRGIN ISLANDS

CITY           SKY/WX    TMP DP  RH WIND       PRES   REMARKS
CHARLOTTE AMA  PTCLDY    79  73  83 E6        30.00S
CHRISTIANSTED  CLEAR     73  70  88 N6        30.00F
$$

HOURLY WEATHER ROUNDUP FOR THE NEWS MEDIA

CITY           SKY/WX    TMP DP  RH WIND       PRES   REMARKS
ORLANDO        CLOUDY    77  70  79 S8        29.92S
NEW YORK       MOCLDY    43  29  57 N7        30.10S
NEWARK         MOCLDY    41  33  73 NW7       30.10R
CHICAGO        CLOUDY    32  30  92 SE8       29.95F FOG     WCI  25
HARTFORD       CLEAR     38  31  76 W7        30.00R WCI  33
BOSTON         CLEAR     38  32  79 W10       29.99R WCI  31
DALLAS         DRIZZLE   50  49  96 S6        29.74S FOG
PHILADELPHIA   MOCLDY    41  31  67 NW8       30.12R
LOS ANGELES    PTCLDY    57  54  89 E3        29.95R
WASHINGTON DC  CLOUDY    40  32  73 CALM      30.12S


USA.gov is the U.S. government's official web portal to all federal, state and local government web resources and services.